Yakima, WA
on Saturday, November 10, 2012

Saturday
Previous Day Next Day
Daily Summary
 ActualAverageRecord
Temperature
Mean Temperature °F / °C 40°F / 4°C  
Max Temperature 41°F / 5°C 51°F / 11°C 73°F / 22°C (1989)
Min Temperature 29°F / -2°C 28°F / -2°C 13°F / -10°C (1986)
Degree Days
Heating Degree Days 30 26  
Month to date heating degree days 192 239  
Since 1 July heating degree days 729 943  
Cooling Degree Days 0 0  
Month to date cooling degree days 0 0  
Year to date cooling degree days 667 472  
Moisture
Dew Point 31°F / -1°C   
Average Humidity 83    
Maximum Humidity 89    
Minimum Humidity 76    
Precipitation
Precipitation 0.05 in / 1.27 cm 0.03 in / 0.76 cm 1.01 in / 2.57 cm (1983)
Month to date precipitation 0.14 0.30  
Year to date precipitation 6.67 5.97  
Snow
Snow 0.30 in / 0.76 cm 0.00 in / 0.00 cm 1.00 in / 2.54 cm (1995)
Month to date snowfall 0.5 0.3  
Year to date snowfall 22.0 9.0  
Since 1 July snowfall 0.5 0.4  
Snow Depth 0.00 in / 0.00 cm   
Wind
Wind Speed 3 mph / 5 km/h   
Max Wind Speed 22 mph / 35 km/h   
Max Gust Speed 13 mph / 21 km/h   
Visibility 6 miles / 10 kilometers   
Events Fog , Snow   

Key: T is trace of precipitation, MM is missing value
Source: NWS Daily Summary
Time(PST)TemperatureDew PointHumidity Pressure Visibility Wind DirectionWind SpeedGust SpeedPrecipitationEvents Conditions
12:53 AM 33.1°F / 0.6°C 30.0°F / -1.1°C 89% 29.94 in / 1013.8 hPa 8.0 miles / 12.9 kilometers West 5.8 mph / 9.3 km/h - N/A   Overcast
1:53 AM 34.0°F / 1.1°C 30.0°F / -1.1°C 85% 29.96 in / 1014.5 hPa 10.0 miles / 16.1 kilometers West 6.9 mph / 11.1 km/h - N/A   Overcast
2:53 AM 35.1°F / 1.7°C 30.9°F / -0.6°C 85% 29.96 in / 1014.5 hPa 10.0 miles / 16.1 kilometers WNW 3.5 mph / 5.6 km/h - N/A   Overcast
3:53 AM 34.0°F / 1.1°C 30.9°F / -0.6°C 89% 29.98 in / 1015.2 hPa 6.0 miles / 9.7 kilometers Calm Calm - N/A   Overcast
4:53 AM 35.1°F / 1.7°C 30.9°F / -0.6°C 85% 30.00 in / 1015.7 hPa 8.0 miles / 12.9 kilometers Calm Calm - N/A   Overcast
5:53 AM 35.1°F / 1.7°C 30.9°F / -0.6°C 85% 30.01 in / 1016.0 hPa 6.0 miles / 9.7 kilometers Calm Calm - 0.00 in / 0.0 cm   Overcast
6:13 AM 33.8°F / 1.0°C 30.2°F / -1.0°C 87% 29.99 in / 1015.5 hPa 2.5 miles / 4.0 kilometers SE 3.5 mph / 5.6 km/h - 0.00 in / 0.0 cm Snow Light Snow
6:34 AM 33.8°F / 1.0°C 30.2°F / -1.0°C 87% 29.99 in / 1015.5 hPa 3.0 miles / 4.8 kilometers Calm Calm - 0.00 in / 0.0 cm Snow Light Snow
6:53 AM 34.0°F / 1.1°C 30.9°F / -0.6°C 89% 30.03 in / 1016.7 hPa 4.0 miles / 6.4 kilometers Calm Calm - 0.00 in / 0.0 cm   Overcast
7:20 AM 33.8°F / 1.0°C 30.2°F / -1.0°C 87% 30.01 in / 1016.1 hPa 2.5 miles / 4.0 kilometers Calm Calm - 0.00 in / 0.0 cm   Overcast
7:33 AM 33.8°F / 1.0°C 30.2°F / -1.0°C 87% 30.01 in / 1016.1 hPa 4.0 miles / 6.4 kilometers Calm Calm - 0.00 in / 0.0 cm   Overcast
7:53 AM 35.1°F / 1.7°C 30.9°F / -0.6°C 85% 30.05 in / 1017.6 hPa 4.0 miles / 6.4 kilometers Calm Calm - 0.00 in / 0.0 cm   Overcast
8:29 AM 33.8°F / 1.0°C 32.0°F / 0.0°C 93% 30.03 in / 1016.8 hPa 1.5 miles / 2.4 kilometers Calm Calm - 0.00 in / 0.0 cm Snow Light Snow
8:42 AM 33.8°F / 1.0°C 32.0°F / 0.0°C 93% 30.04 in / 1017.2 hPa 1.0 miles / 1.6 kilometers Calm Calm - N/A Snow Light Snow
8:53 AM 34.0°F / 1.1°C 30.9°F / -0.6°C 89% 30.07 in / 1018.2 hPa 1.0 miles / 1.6 kilometers Calm Calm - 0.01 in / 0.3 cm Snow Light Snow
9:00 AM 33.8°F / 1.0°C 30.2°F / -1.0°C 87% 30.04 in / 1017.2 hPa 0.5 miles / 0.8 kilometers Calm Calm - 0.00 in / 0.0 cm Fog , Snow Snow
9:21 AM 33.8°F / 1.0°C 30.2°F / -1.0°C 87% 30.05 in / 1017.5 hPa 1.0 miles / 1.6 kilometers Calm Calm - 0.01 in / 0.3 cm Snow Light Snow
9:31 AM 33.8°F / 1.0°C 30.2°F / -1.0°C 87% 30.05 in / 1017.5 hPa 0.5 miles / 0.8 kilometers Calm Calm - 0.01 in / 0.3 cm Fog , Snow Snow
9:46 AM 33.8°F / 1.0°C 30.2°F / -1.0°C 87% 30.05 in / 1017.5 hPa 0.5 miles / 0.8 kilometers East 4.6 mph / 7.4 km/h - 0.03 in / 0.8 cm Fog , Snow Snow
9:53 AM 33.1°F / 0.6°C 30.9°F / -0.6°C 92% 30.09 in / 1018.7 hPa 0.5 miles / 0.8 kilometers East 4.6 mph / 7.4 km/h - 0.03 in / 0.8 cm Fog , Snow Light Snow
10:05 AM 33.8°F / 1.0°C 30.2°F / -1.0°C 87% 30.06 in / 1017.8 hPa 1.2 miles / 2.0 kilometers Calm Calm - 0.01 in / 0.3 cm Snow Light Snow
10:14 AM 33.8°F / 1.0°C 32.0°F / 0.0°C 93% 30.06 in / 1017.8 hPa 3.0 miles / 4.8 kilometers Calm Calm - 0.01 in / 0.3 cm Snow Light Snow
10:53 AM 36.0°F / 2.2°C 32.0°F / 0.0°C 86% 30.09 in / 1019.0 hPa 10.0 miles / 16.1 kilometers ENE 3.5 mph / 5.6 km/h - 0.01 in / 0.3 cm   Overcast
11:53 AM 37.0°F / 2.8°C 32.0°F / 0.0°C 82% 30.10 in / 1019.3 hPa 10.0 miles / 16.1 kilometers Calm Calm - N/A   Mostly Cloudy
12:53 PM 39.9°F / 4.4°C 33.1°F / 0.6°C 77% 30.10 in / 1019.3 hPa 10.0 miles / 16.1 kilometers Variable 4.6 mph / 7.4 km/h - N/A   Mostly Cloudy
1:08 PM 39.2°F / 4.0°C 33.8°F / 1.0°C 81% 30.08 in / 1018.5 hPa 10.0 miles / 16.1 kilometers ENE 5.8 mph / 9.3 km/h - N/A   Overcast
1:53 PM 39.0°F / 3.9°C 32.0°F / 0.0°C 76% 30.12 in / 1019.9 hPa 10.0 miles / 16.1 kilometers East 3.5 mph / 5.6 km/h - N/A   Mostly Cloudy
2:27 PM 39.2°F / 4.0°C 32.0°F / 0.0°C 75% 30.10 in / 1019.2 hPa 10.0 miles / 16.1 kilometers East 6.9 mph / 11.1 km/h - N/A   Mostly Cloudy
2:53 PM 39.0°F / 3.9°C 32.0°F / 0.0°C 76% 30.13 in / 1020.2 hPa 10.0 miles / 16.1 kilometers ESE 5.8 mph / 9.3 km/h - N/A   Scattered Clouds
3:53 PM 39.0°F / 3.9°C 32.0°F / 0.0°C 76% 30.15 in / 1020.9 hPa 10.0 miles / 16.1 kilometers ESE 4.6 mph / 7.4 km/h - N/A   Mostly Cloudy
4:30 PM 37.4°F / 3.0°C 30.2°F / -1.0°C 75% 30.13 in / 1020.2 hPa 10.0 miles / 16.1 kilometers SSE 5.8 mph / 9.3 km/h - N/A   Mostly Cloudy
4:53 PM 35.1°F / 1.7°C 30.0°F / -1.1°C 82% 30.16 in / 1021.3 hPa 10.0 miles / 16.1 kilometers SSE 4.6 mph / 7.4 km/h - N/A   Mostly Cloudy
5:53 PM 35.1°F / 1.7°C 30.9°F / -0.6°C 85% 30.19 in / 1022.3 hPa 10.0 miles / 16.1 kilometers East 3.5 mph / 5.6 km/h - N/A   Mostly Cloudy
6:38 PM 35.6°F / 2.0°C 30.2°F / -1.0°C 81% 30.18 in / 1021.9 hPa 10.0 miles / 16.1 kilometers Calm Calm - 0.00 in / 0.0 cm   Overcast
6:53 PM 36.0°F / 2.2°C 30.9°F / -0.6°C 82% 30.21 in / 1022.9 hPa 10.0 miles / 16.1 kilometers SE 4.6 mph / 7.4 km/h - 0.00 in / 0.0 cm   Overcast
7:03 PM 35.6°F / 2.0°C 30.2°F / -1.0°C 81% 30.18 in / 1021.9 hPa 10.0 miles / 16.1 kilometers East 5.8 mph / 9.3 km/h - N/A   Overcast
7:53 PM 35.6°F / 2.0°C 30.2°F / -1.0°C 81% 30.18 in / 1021.9 hPa 9.0 miles / 14.5 kilometers East 5.8 mph / 9.3 km/h - N/A   Overcast
8:53 PM 34.0°F / 1.1°C 30.0°F / -1.1°C 85% 30.22 in / 1023.3 hPa 9.0 miles / 14.5 kilometers SE 3.5 mph / 5.6 km/h - N/A   Mostly Cloudy
9:16 PM 33.8°F / 1.0°C 28.4°F / -2.0°C 81% 30.20 in / 1022.6 hPa 9.0 miles / 14.5 kilometers Calm Calm - N/A   Overcast
9:53 PM 33.1°F / 0.6°C 28.9°F / -1.7°C 85% 30.24 in / 1023.8 hPa 8.0 miles / 12.9 kilometers Calm Calm - N/A   Overcast
10:53 PM 32.0°F / 0.0°C 28.0°F / -2.2°C 85% 30.25 in / 1024.1 hPa 8.0 miles / 12.9 kilometers East 4.6 mph / 7.4 km/h - N/A   Scattered Clouds
11:53 PM 30.0°F / -1.1°C 26.1°F / -3.3°C 85% 30.26 in / 1024.6 hPa 7.0 miles / 11.3 kilometers Calm Calm - N/A   Clear
Moon Phase
Nov. 10 Nov. 13 Nov. 20 Nov. 28 Dec. 06
Sunrise:06:57 AM (PST) Moon Rise:02:57 AM (PST)11/10
Sunset:04:33 PM (PST) Moon Set:02:33 PM (PST)11/10

Copyright © 2014 The Weather Underground, Inc.